Location: Newark
(54.6833°N, 25.2833°E)
Time: 03:42:40
(UTC+00:00)

Altair - Pass Details

Date: 21 November 2019
Orbit: 1502 x 1682 km, 47.2° (Epoch: 12 December)

Event Time Altitude Azimuth Distance (km) Brightness Sun altitude
Rises 07:22:22 0° 283° (WNW) 4,655 9.6 7.8°
Reaches altitude 10° 07:26:09 10° 270° (W) 3,687 9.2 8.1°
Maximum altitude 07:32:52 23° 223° (SW) 2,827 9.1 8.7°
Drops below altitude 10° 07:39:44 10° 176° (S) 3,765 10.8 9.3°
Sets 07:43:40 0° 163° (SSE) 4,777 11.8 9.6°
